Time,TemperatureF,DewpointF,PressureIn,WindDirection,WindDirectionDegrees,WindSpeedMPH,WindSpeedGustMPH,Humidity,HourlyPrecipIn,Conditions,Clouds,dailyrainin,SoftwareType,DateUTC
2013-06-13 00:00:00,53.6,45.9,30.00,NNW,331,0.0,0.0,75,0.00,,,0.00,Wunderground v.1.15,2013-06-13 07:00:00,
2013-06-13 00:05:00,53.8,46.1,30.00,NNW,337,0.0,0.0,75,0.00,,,0.00,Wunderground v.1.15,2013-06-13 07:05:00,
2013-06-13 00:15:00,54.1,46.0,30.00,NNW,337,0.0,0.0,74,0.00,,,0.00,Wunderground v.1.15,2013-06-13 07:15:00,
2013-06-13 00:20:00,54.1,46.0,30.00,North,355,0.0,0.0,74,0.00,,,0.00,Wunderground v.1.15,2013-06-13 07:20:00,
2013-06-13 00:25:00,54.2,46.1,30.00,NNW,329,0.0,0.0,74,0.00,,,0.00,Wunderground v.1.15,2013-06-13 07:25:00,
2013-06-13 00:30:00,54.3,46.2,30.00,NW,304,0.0,1.0,74,0.00,,,0.00,Wunderground v.1.15,2013-06-13 07:30:00,
2013-06-13 00:40:00,54.4,46.3,30.00,NW,323,0.0,0.0,74,0.00,,,0.00,Wunderground v.1.15,2013-06-13 07:40:00,
2013-06-13 00:45:00,54.3,46.2,30.00,NW,323,0.0,0.0,74,0.00,,,0.00,Wunderground v.1.15,2013-06-13 07:45:00,
2013-06-13 00:50:00,54.0,45.9,30.00,NW,323,0.0,0.0,74,0.00,,,0.00,Wunderground v.1.15,2013-06-13 07:50:00,
2013-06-13 01:00:00,53.1,45.7,30.00,NNE,13,0.0,0.0,76,0.00,,,0.00,Wunderground v.1.15,2013-06-13 08:00:00,
2013-06-13 01:05:00,52.7,45.7,30.00,NNE,13,0.0,0.0,77,0.00,,,0.00,Wunderground v.1.15,2013-06-13 08:05:00,
2013-06-13 01:10:00,52.3,45.6,30.00,NNE,13,0.0,0.0,78,0.00,,,0.00,Wunderground v.1.15,2013-06-13 08:10:00,
2013-06-13 01:15:00,51.9,45.6,30.00,NNE,13,0.0,0.0,79,0.00,,,0.00,Wunderground v.1.15,2013-06-13 08:15:00,
2013-06-13 01:20:00,51.6,45.3,30.00,NNE,13,0.0,0.0,79,0.00,,,0.00,Wunderground v.1.15,2013-06-13 08:20:00,
2013-06-13 01:25:00,51.3,45.7,30.01,NNE,13,0.0,0.0,81,0.00,,,0.00,Wunderground v.1.15,2013-06-13 08:25:00,
2013-06-13 01:30:00,51.2,45.6,30.01,NNE,13,0.0,0.0,81,0.00,,,0.00,Wunderground v.1.15,2013-06-13 08:30:00,
2013-06-13 01:35:00,51.0,45.4,30.01,NNE,13,0.0,0.0,81,0.00,,,0.00,Wunderground v.1.15,2013-06-13 08:35:00,
2013-06-13 01:50:00,50.6,45.3,30.01,NNE,13,0.0,0.0,82,0.00,,,0.00,Wunderground v.1.15,2013-06-13 08:50:00,
2013-06-13 01:55:00,50.6,45.3,30.01,NNE,13,0.0,0.0,82,0.00,,,0.00,Wunderground v.1.15,2013-06-13 08:55:00,
2013-06-13 02:00:00,50.7,45.4,30.01,NNE,13,0.0,0.0,82,0.00,,,0.00,Wunderground v.1.15,2013-06-13 09:00:00,
2013-06-13 02:05:00,50.8,45.8,30.01,NNE,12,0.0,0.0,83,0.00,,,0.00,Wunderground v.1.15,2013-06-13 09:05:00,
2013-06-13 02:10:00,51.0,46.0,30.01,NW,316,0.0,0.0,83,0.00,,,0.00,Wunderground v.1.15,2013-06-13 09:10:00,
2013-06-13 02:20:00,51.3,46.0,30.01,NW,321,0.0,0.0,82,0.00,,,0.00,Wunderground v.1.15,2013-06-13 09:20:00,
2013-06-13 02:25:00,51.0,45.4,30.01,NW,321,0.0,0.0,81,0.00,,,0.00,Wunderground v.1.15,2013-06-13 09:25:00,
2013-06-13 02:30:00,50.7,45.4,30.01,NW,321,0.0,0.0,82,0.00,,,0.00,Wunderground v.1.15,2013-06-13 09:30:00,
2013-06-13 02:35:00,50.5,45.5,30.01,NW,321,0.0,0.0,83,0.00,,,0.00,Wunderground v.1.15,2013-06-13 09:35:00,
2013-06-13 02:40:00,50.2,45.2,30.01,NW,321,0.0,0.0,83,0.00,,,0.00,Wunderground v.1.15,2013-06-13 09:40:00,
2013-06-13 02:45:00,50.1,45.1,30.01,NW,321,0.0,0.0,83,0.00,,,0.00,Wunderground v.1.15,2013-06-13 09:45:00,
2013-06-13 02:55:00,49.9,44.6,30.01,NW,321,0.0,0.0,82,0.00,,,0.00,Wunderground v.1.15,2013-06-13 09:55:00,
2013-06-13 03:00:00,49.9,44.3,30.01,NW,321,0.0,0.0,81,0.00,,,0.00,Wunderground v.1.15,2013-06-13 10:00:00,
2013-06-13 03:05:00,49.9,44.3,30.02,NW,321,0.0,0.0,81,0.00,,,0.00,Wunderground v.1.15,2013-06-13 10:05:00,
2013-06-13 03:10:00,49.9,44.3,30.02,NW,321,0.0,0.0,81,0.00,,,0.00,Wunderground v.1.15,2013-06-13 10:10:00,
2013-06-13 03:15:00,50.1,44.5,30.02,NW,321,0.0,0.0,81,0.00,,,0.00,Wunderground v.1.15,2013-06-13 10:15:00,
2013-06-13 03:25:00,50.3,44.7,30.01,NW,321,0.0,0.0,81,0.00,,,0.00,Wunderground v.1.15,2013-06-13 10:25:00,
2013-06-13 03:30:00,50.4,45.1,30.02,NW,321,0.0,0.0,82,0.00,,,0.00,Wunderground v.1.15,2013-06-13 10:30:00,
2013-06-13 03:40:00,50.3,44.7,30.02,NW,321,0.0,0.0,81,0.00,,,0.00,Wunderground v.1.15,2013-06-13 10:40:00,
2013-06-13 03:45:00,50.2,44.6,30.02,NW,321,0.0,0.0,81,0.00,,,0.00,Wunderground v.1.15,2013-06-13 10:45:00,
2013-06-13 03:50:00,50.0,44.7,30.02,NW,321,0.0,0.0,82,0.00,,,0.00,Wunderground v.1.15,2013-06-13 10:50:00,
2013-06-13 03:55:00,49.8,44.5,30.02,NW,321,0.0,0.0,82,0.00,,,0.00,Wunderground v.1.15,2013-06-13 10:55:00,
2013-06-13 04:05:00,49.5,44.2,30.02,NW,321,0.0,0.0,82,0.00,,,0.00,Wunderground v.1.15,2013-06-13 11:05:00,
2013-06-13 04:10:00,49.4,44.1,30.02,NW,321,0.0,0.0,82,0.00,,,0.00,Wunderground v.1.15,2013-06-13 11:10:00,
2013-06-13 04:15:00,49.4,44.1,30.03,NW,321,0.0,0.0,82,0.00,,,0.00,Wunderground v.1.15,2013-06-13 11:15:00,
2013-06-13 04:20:00,49.4,44.1,30.03,NW,321,0.0,0.0,82,0.00,,,0.00,Wunderground v.1.15,2013-06-13 11:20:00,
2013-06-13 04:30:00,49.3,44.0,30.03,NW,321,0.0,0.0,82,0.00,,,0.00,Wunderground v.1.15,2013-06-13 11:30:00,
2013-06-13 04:35:00,49.2,43.9,30.03,NW,321,0.0,0.0,82,0.00,,,0.00,Wunderground v.1.15,2013-06-13 11:35:00,
2013-06-13 04:40:00,49.0,43.7,30.03,NW,321,0.0,0.0,82,0.00,,,0.00,Wunderground v.1.15,2013-06-13 11:40:00,
2013-06-13 04:45:00,48.8,44.2,30.03,NW,321,0.0,0.0,84,0.00,,,0.00,Wunderground v.1.15,2013-06-13 11:45:00,
2013-06-13 04:55:00,48.8,44.2,30.03,NW,321,0.0,0.0,84,0.00,,,0.00,Wunderground v.1.15,2013-06-13 11:55:00,
2013-06-13 05:00:00,48.7,44.1,30.03,NW,321,0.0,0.0,84,0.00,,,0.00,Wunderground v.1.15,2013-06-13 12:00:00,
2013-06-13 05:05:00,48.7,44.4,30.04,NW,321,0.0,0.0,85,0.00,,,0.00,Wunderground v.1.15,2013-06-13 12:05:00,
2013-06-13 05:10:00,48.7,44.1,30.03,NW,321,0.0,0.0,84,0.00,,,0.00,Wunderground v.1.15,2013-06-13 12:10:00,
2013-06-13 05:15:00,48.6,44.0,30.04,NW,321,0.0,0.0,84,0.00,,,0.00,Wunderground v.1.15,2013-06-13 12:15:00,
2013-06-13 05:25:00,48.3,44.0,30.04,WSW,255,0.0,0.0,85,0.00,,,0.00,Wunderground v.1.15,2013-06-13 12:25:00,
2013-06-13 05:30:00,48.3,44.0,30.04,West,261,0.0,0.0,85,0.00,,,0.00,Wunderground v.1.15,2013-06-13 12:30:00,
2013-06-13 05:35:00,48.2,43.9,30.04,NW,310,0.0,0.0,85,0.00,,,0.00,Wunderground v.1.15,2013-06-13 12:35:00,
2013-06-13 05:40:00,48.2,43.9,30.04,NW,304,0.0,0.0,85,0.00,,,0.00,Wunderground v.1.15,2013-06-13 12:40:00,
2013-06-13 05:45:00,48.1,43.8,30.05,North,360,0.0,0.0,85,0.00,,,0.00,Wunderground v.1.15,2013-06-13 12:45:00,
2013-06-13 05:50:00,48.0,44.0,30.05,SW,216,0.0,0.0,86,0.00,,,0.00,Wunderground v.1.15,2013-06-13 12:50:00,
2013-06-13 06:00:00,48.0,44.0,30.06,SW,216,0.0,0.0,86,0.00,,,0.00,Wunderground v.1.15,2013-06-13 13:00:00,
2013-06-13 06:05:00,48.0,44.0,30.06,SW,216,0.0,0.0,86,0.00,,,0.00,Wunderground v.1.15,2013-06-13 13:05:00,
2013-06-13 06:10:00,48.1,44.1,30.06,SW,216,0.0,0.0,86,0.00,,,0.00,Wunderground v.1.15,2013-06-13 13:10:00,
2013-06-13 06:15:00,48.2,44.5,30.06,SW,216,0.0,0.0,87,0.00,,,0.00,Wunderground v.1.15,2013-06-13 13:15:00,
2013-06-13 06:20:00,48.3,44.6,30.06,SW,216,0.0,0.0,87,0.00,,,0.00,Wunderground v.1.15,2013-06-13 13:20:00,
2013-06-13 06:25:00,48.4,45.0,30.06,SW,216,0.0,0.0,88,0.00,,,0.00,Wunderground v.1.15,2013-06-13 13:25:00,
2013-06-13 06:30:00,48.6,45.2,30.06,SW,216,0.0,0.0,88,0.00,,,0.00,Wunderground v.1.15,2013-06-13 13:30:00,
2013-06-13 06:40:00,49.2,45.5,30.07,SW,216,0.0,0.0,87,0.00,,,0.00,Wunderground v.1.15,2013-06-13 13:40:00,
2013-06-13 06:45:00,49.5,45.8,30.07,SW,216,0.0,0.0,87,0.00,,,0.00,Wunderground v.1.15,2013-06-13 13:45:00,
2013-06-13 06:50:00,49.8,45.8,30.07,SW,216,0.0,0.0,86,0.00,,,0.00,Wunderground v.1.15,2013-06-13 13:50:00,
2013-06-13 06:55:00,50.1,45.8,30.07,SW,216,0.0,0.0,85,0.00,,,0.00,Wunderground v.1.15,2013-06-13 13:55:00,
2013-06-13 07:05:00,50.8,46.1,30.07,SW,216,0.0,0.0,84,0.00,,,0.00,Wunderground v.1.15,2013-06-13 14:05:00,
2013-06-13 07:10:00,51.5,46.2,30.07,SW,216,0.0,0.0,82,0.00,,,0.00,Wunderground v.1.15,2013-06-13 14:10:00,
2013-06-13 07:15:00,52.1,46.4,30.07,SW,216,0.0,0.0,81,0.00,,,0.00,Wunderground v.1.15,2013-06-13 14:15:00,
2013-06-13 07:20:00,52.8,46.8,30.07,SW,216,0.0,0.0,80,0.00,,,0.00,Wunderground v.1.15,2013-06-13 14:20:00,
2013-06-13 07:30:00,53.9,47.2,30.07,SW,216,0.0,0.0,78,0.00,,,0.00,Wunderground v.1.15,2013-06-13 14:30:00,
2013-06-13 07:35:00,54.4,47.0,30.07,WSW,258,0.0,0.0,76,0.00,,,0.00,Wunderground v.1.15,2013-06-13 14:35:00,
2013-06-13 07:40:00,54.8,47.0,30.08,WSW,258,0.0,0.0,75,0.00,,,0.00,Wunderground v.1.15,2013-06-13 14:40:00,
2013-06-13 07:45:00,55.5,47.7,30.08,WSW,258,0.0,0.0,75,0.00,,,0.00,Wunderground v.1.15,2013-06-13 14:45:00,
2013-06-13 07:50:00,55.9,47.0,30.08,West,265,0.0,0.0,72,0.00,,,0.00,Wunderground v.1.15,2013-06-13 14:50:00,
2013-06-13 07:55:00,56.1,46.8,30.08,WSW,244,0.0,0.0,71,0.00,,,0.00,Wunderground v.1.15,2013-06-13 14:55:00,
2013-06-13 08:00:00,56.5,46.8,30.08,NNW,334,0.0,0.0,70,0.00,,,0.00,Wunderground v.1.15,2013-06-13 15:00:00,
2013-06-13 08:10:00,57.1,45.4,30.08,SW,217,0.0,0.0,65,0.00,,,0.00,Wunderground v.1.15,2013-06-13 15:10:00,
2013-06-13 08:15:00,57.5,45.8,30.08,SW,220,0.0,0.0,65,0.00,,,0.00,Wunderground v.1.15,2013-06-13 15:15:00,
2013-06-13 08:20:00,57.8,45.3,30.08,SE,128,0.0,0.0,63,0.00,,,0.00,Wunderground v.1.15,2013-06-13 15:20:00,
2013-06-13 08:25:00,58.2,44.8,30.08,South,170,0.0,0.0,61,0.00,,,0.00,Wunderground v.1.15,2013-06-13 15:25:00,
2013-06-13 08:35:00,58.9,44.6,30.09,WNW,299,0.0,0.0,59,0.00,,,0.00,Wunderground v.1.15,2013-06-13 15:35:00,
2013-06-13 08:40:00,59.2,45.3,30.09,West,260,0.0,2.0,60,0.00,,,0.00,Wunderground v.1.15,2013-06-13 15:40:00,
2013-06-13 08:45:00,59.4,45.1,30.09,NNW,339,0.0,2.0,59,0.00,,,0.00,Wunderground v.1.15,2013-06-13 15:45:00,
2013-06-13 08:50:00,59.7,45.3,30.09,WSW,255,1.0,1.0,59,0.00,,,0.00,Wunderground v.1.15,2013-06-13 15:50:00,
2013-06-13 09:00:00,61.0,45.7,30.09,WSW,245,0.0,1.0,57,0.00,,,0.00,Wunderground v.1.15,2013-06-13 16:00:00,
2013-06-13 09:05:00,61.6,46.2,30.09,WSW,258,0.0,1.0,57,0.00,,,0.00,Wunderground v.1.15,2013-06-13 16:05:00,
2013-06-13 09:10:00,61.4,44.6,30.10,NW,311,1.0,1.0,54,0.00,,,0.00,Wunderground v.1.15,2013-06-13 16:10:00,
2013-06-13 09:20:00,62.1,45.2,30.10,North,350,0.0,1.0,54,0.00,,,0.00,Wunderground v.1.15,2013-06-13 16:20:00,
2013-06-13 09:25:00,62.4,46.0,30.10,NNW,330,1.0,1.0,55,0.00,,,0.00,Wunderground v.1.15,2013-06-13 16:25:00,
2013-06-13 09:30:00,62.8,45.9,30.10,SSW,203,1.0,1.0,54,0.00,,,0.00,Wunderground v.1.15,2013-06-13 16:30:00,
2013-06-13 09:35:00,63.4,46.9,30.10,WNW,293,0.0,3.0,55,0.00,,,0.00,Wunderground v.1.15,2013-06-13 16:35:00,
2013-06-13 09:40:00,63.8,46.8,30.10,WNW,284,0.0,0.0,54,0.00,,,0.00,Wunderground v.1.15,2013-06-13 16:40:00,
2013-06-13 09:50:00,64.7,46.1,30.10,West,260,1.0,4.0,51,0.00,,,0.00,Wunderground v.1.15,2013-06-13 16:50:00,
2013-06-13 09:55:00,64.6,46.1,30.10,WSW,249,1.0,4.0,51,0.00,,,0.00,Wunderground v.1.15,2013-06-13 16:55:00,
2013-06-13 10:00:00,65.1,47.0,30.09,NE,53,1.0,1.0,52,0.00,,,0.00,Wunderground v.1.15,2013-06-13 17:00:00,
2013-06-13 10:05:00,65.8,47.2,30.09,North,5,0.0,1.0,51,0.00,,,0.00,Wunderground v.1.15,2013-06-13 17:05:00,
2013-06-13 10:10:00,66.8,47.6,30.09,NW,321,0.0,0.0,50,0.00,,,0.00,Wunderground v.1.15,2013-06-13 17:10:00,
2013-06-13 10:15:00,67.5,47.1,30.09,WSW,254,0.0,1.0,48,0.00,,,0.00,Wunderground v.1.15,2013-06-13 17:15:00,
2013-06-13 10:25:00,67.7,47.3,30.10,West,271,1.0,3.0,48,0.00,,,0.00,Wunderground v.1.15,2013-06-13 17:25:00,
2013-06-13 10:30:00,67.8,46.8,30.10,NNW,328,1.0,1.0,47,0.00,,,0.00,Wunderground v.1.15,2013-06-13 17:30:00,
2013-06-13 10:35:00,68.0,48.1,30.10,NW,309,1.0,2.0,49,0.00,,,0.00,Wunderground v.1.15,2013-06-13 17:35:00,
2013-06-13 10:40:00,68.6,48.1,30.10,NW,320,1.0,1.0,48,0.00,,,0.00,Wunderground v.1.15,2013-06-13 17:40:00,
2013-06-13 10:50:00,70.2,47.9,30.10,SSE,150,1.0,1.0,45,0.00,,,0.00,Wunderground v.1.15,2013-06-13 17:50:00,
2013-06-13 10:55:00,70.5,48.1,30.10,WSW,253,1.0,2.0,45,0.00,,,0.00,Wunderground v.1.15,2013-06-13 17:55:00,
2013-06-13 11:00:00,70.9,46.7,30.10,NW,304,1.0,1.0,42,0.00,,,0.00,Wunderground v.1.15,2013-06-13 18:00:00,
2013-06-13 11:05:00,70.9,46.7,30.10,NW,325,1.0,2.0,42,0.00,,,0.00,Wunderground v.1.15,2013-06-13 18:05:00,
2013-06-13 11:10:00,70.7,46.5,30.10,WSW,242,1.0,2.0,42,0.00,,,0.00,Wunderground v.1.15,2013-06-13 18:10:00,
2013-06-13 11:15:00,71.0,46.7,30.10,NE,37,1.0,2.0,42,0.00,,,0.00,Wunderground v.1.15,2013-06-13 18:15:00,
2013-06-13 11:25:00,72.0,45.7,30.10,WSW,240,1.0,4.0,39,0.00,,,0.00,Wunderground v.1.15,2013-06-13 18:25:00,
2013-06-13 11:30:00,72.8,47.7,30.09,NNE,26,1.0,1.0,41,0.00,,,0.00,Wunderground v.1.15,2013-06-13 18:30:00,
2013-06-13 11:35:00,73.2,46.1,30.09,NW,313,1.0,2.0,38,0.00,,,0.00,Wunderground v.1.15,2013-06-13 18:35:00,
2013-06-13 11:40:00,72.9,47.8,30.09,WNW,284,1.0,1.0,41,0.00,,,0.00,Wunderground v.1.15,2013-06-13 18:40:00,
2013-06-13 11:45:00,73.6,47.8,30.10,NW,315,1.0,1.0,40,0.00,,,0.00,Wunderground v.1.15,2013-06-13 18:45:00,
2013-06-13 11:50:00,74.1,48.2,30.10,NNW,334,1.0,3.0,40,0.00,,,0.00,Wunderground v.1.15,2013-06-13 18:50:00,
2013-06-13 12:00:00,73.7,47.9,30.10,West,269,2.0,4.0,40,0.00,,,0.00,Wunderground v.1.15,2013-06-13 19:00:00,
2013-06-13 12:05:00,72.9,47.2,30.10,WSW,238,2.0,4.0,40,0.00,,,0.00,Wunderground v.1.15,2013-06-13 19:05:00,
2013-06-13 12:10:00,73.2,48.1,30.09,South,169,2.0,2.0,41,0.00,,,0.00,Wunderground v.1.15,2013-06-13 19:10:00,
2013-06-13 12:20:00,73.3,46.2,30.09,East,85,2.0,2.0,38,0.00,,,0.00,Wunderground v.1.15,2013-06-13 19:20:00,
2013-06-13 12:25:00,73.7,45.1,30.09,NW,316,2.0,2.0,36,0.00,,,0.00,Wunderground v.1.15,2013-06-13 19:25:00,
2013-06-13 12:30:00,74.0,46.1,30.09,West,267,2.0,2.0,37,0.00,,,0.00,Wunderground v.1.15,2013-06-13 19:30:00,
2013-06-13 12:35:00,74.4,47.8,30.09,SSE,165,2.0,2.0,39,0.00,,,0.00,Wunderground v.1.15,2013-06-13 19:35:00,
2013-06-13 12:45:00,75.1,47.8,30.09,NNE,15,2.0,3.0,38,0.00,,,0.00,Wunderground v.1.15,2013-06-13 19:45:00,
2013-06-13 12:50:00,75.3,49.3,30.09,North,10,2.0,2.0,40,0.00,,,0.00,Wunderground v.1.15,2013-06-13 19:50:00,
2013-06-13 12:55:00,75.8,47.7,30.09,West,263,2.0,2.0,37,0.00,,,0.00,Wunderground v.1.15,2013-06-13 19:55:00,
2013-06-13 13:00:00,75.8,46.9,30.09,WNW,300,2.0,2.0,36,0.00,,,0.00,Wunderground v.1.15,2013-06-13 20:00:00,
2013-06-13 13:05:00,76.0,47.1,30.09,NW,304,2.0,3.0,36,0.00,,,0.00,Wunderground v.1.15,2013-06-13 20:05:00,
2013-06-13 13:10:00,76.9,47.9,30.09,WNW,286,1.0,1.0,36,0.00,,,0.00,Wunderground v.1.15,2013-06-13 20:10:00,
2013-06-13 13:15:00,76.8,47.1,30.09,NW,315,2.0,2.0,35,0.00,,,0.00,Wunderground v.1.15,2013-06-13 20:15:00,
2013-06-13 13:25:00,76.3,46.6,30.09,NW,321,2.0,3.0,35,0.00,,,0.00,Wunderground v.1.15,2013-06-13 20:25:00,
2013-06-13 13:30:00,75.3,46.5,30.09,SSW,213,3.0,3.0,36,0.00,,,0.00,Wunderground v.1.15,2013-06-13 20:30:00,
2013-06-13 13:40:00,77.1,45.8,30.09,NW,312,1.0,1.0,33,0.00,,,0.00,Wunderground v.1.15,2013-06-13 20:40:00,
2013-06-13 13:45:00,77.2,45.9,30.08,SSE,163,2.0,2.0,33,0.00,,,0.00,Wunderground v.1.15,2013-06-13 20:45:00,
2013-06-13 13:55:00,77.6,44.6,30.08,NW,313,2.0,4.0,31,0.00,,,0.00,Wunderground v.1.15,2013-06-13 20:55:00,
2013-06-13 14:00:00,77.5,44.5,30.08,NNW,327,2.0,2.0,31,0.00,,,0.00,Wunderground v.1.15,2013-06-13 21:00:00,
2013-06-13 14:10:00,78.4,46.1,30.08,SSE,166,1.0,1.0,32,0.00,,,0.00,Wunderground v.1.15,2013-06-13 21:10:00,
2013-06-13 14:15:00,79.1,45.0,30.08,WNW,296,1.0,4.0,30,0.00,,,0.00,Wunderground v.1.15,2013-06-13 21:15:00,
2013-06-13 14:20:00,78.5,44.5,30.08,NW,314,2.0,7.0,30,0.00,,,0.00,Wunderground v.1.15,2013-06-13 21:20:00,
2013-06-13 14:25:00,77.4,43.5,30.08,NW,319,3.0,7.0,30,0.00,,,0.00,Wunderground v.1.15,2013-06-13 21:25:00,
2013-06-13 14:30:00,77.8,42.1,30.08,NW,315,2.0,5.0,28,0.00,,,0.00,Wunderground v.1.15,2013-06-13 21:30:00,
2013-06-13 14:35:00,77.5,42.7,30.08,WSW,252,2.0,5.0,29,0.00,,,0.00,Wunderground v.1.15,2013-06-13 21:35:00,
2013-06-13 14:45:00,78.3,42.5,30.08,NW,311,1.0,2.0,28,0.00,,,0.00,Wunderground v.1.15,2013-06-13 21:45:00,
2013-06-13 14:50:00,79.0,42.2,30.08,WSW,253,1.0,1.0,27,0.00,,,0.00,Wunderground v.1.15,2013-06-13 21:50:00,
2013-06-13 14:55:00,78.4,41.6,30.07,West,266,2.0,8.0,27,0.00,,,0.00,Wunderground v.1.15,2013-06-13 21:55:00,
2013-06-13 15:00:00,77.7,40.1,30.07,NW,306,3.0,3.0,26,0.00,,,0.00,Wunderground v.1.15,2013-06-13 22:00:00,
2013-06-13 15:05:00,78.2,41.5,30.07,West,266,2.0,3.0,27,0.00,,,0.00,Wunderground v.1.15,2013-06-13 22:05:00,
2013-06-13 15:15:00,78.7,43.8,30.07,WSW,257,2.0,2.0,29,0.00,,,0.00,Wunderground v.1.15,2013-06-13 22:15:00,
2013-06-13 15:20:00,79.3,44.3,30.07,NW,309,1.0,1.0,29,0.00,,,0.00,Wunderground v.1.15,2013-06-13 22:20:00,
2013-06-13 15:25:00,79.4,46.1,30.07,West,269,1.0,1.0,31,0.00,,,0.00,Wunderground v.1.15,2013-06-13 22:25:00,
2013-06-13 15:30:00,79.7,44.6,30.06,SSE,159,1.0,2.0,29,0.00,,,0.00,Wunderground v.1.15,2013-06-13 22:30:00,
2013-06-13 15:35:00,79.1,44.1,30.06,SSW,192,2.0,2.0,29,0.00,,,0.00,Wunderground v.1.15,2013-06-13 22:35:00,
2013-06-13 15:45:00,78.6,43.7,30.06,SE,144,2.0,2.0,29,0.00,,,0.00,Wunderground v.1.15,2013-06-13 22:45:00,
2013-06-13 15:50:00,78.7,43.8,30.06,NNW,340,2.0,2.0,29,0.00,,,0.00,Wunderground v.1.15,2013-06-13 22:50:00,
2013-06-13 15:55:00,78.6,42.8,30.06,WNW,297,1.0,10.0,28,0.00,,,0.00,Wunderground v.1.15,2013-06-13 22:55:00,
2013-06-13 16:00:00,77.9,44.0,30.06,WSW,245,3.0,3.0,30,0.00,,,0.00,Wunderground v.1.15,2013-06-13 23:00:00,
2013-06-13 16:05:00,78.2,44.2,30.05,SSE,159,3.0,3.0,30,0.00,,,0.00,Wunderground v.1.15,2013-06-13 23:05:00,
2013-06-13 16:15:00,79.2,44.2,30.05,SSE,150,1.0,5.0,29,0.00,,,0.00,Wunderground v.1.15,2013-06-13 23:15:00,
2013-06-13 16:20:00,79.4,44.4,30.05,West,265,1.0,9.0,29,0.00,,,0.00,Wunderground v.1.15,2013-06-13 23:20:00,
2013-06-13 16:25:00,78.8,42.9,30.05,WSW,251,2.0,9.0,28,0.00,,,0.00,Wunderground v.1.15,2013-06-13 23:25:00,
2013-06-13 16:30:00,78.9,43.0,30.05,WSW,247,1.0,1.0,28,0.00,,,0.00,Wunderground v.1.15,2013-06-13 23:30:00,
2013-06-13 16:40:00,78.3,42.5,30.05,NNW,339,2.0,2.0,28,0.00,,,0.00,Wunderground v.1.15,2013-06-13 23:40:00,
2013-06-13 16:45:00,77.6,41.9,30.04,NW,319,3.0,3.0,28,0.00,,,0.00,Wunderground v.1.15,2013-06-13 23:45:00,
2013-06-13 16:50:00,77.8,41.1,30.04,North,5,3.0,3.0,27,0.00,,,0.00,Wunderground v.1.15,2013-06-13 23:50:00,
2013-06-13 16:55:00,78.3,42.5,30.04,NW,317,1.0,3.0,28,0.00,,,0.00,Wunderground v.1.15,2013-06-13 23:55:00,
2013-06-13 17:00:00,78.9,42.1,30.04,North,349,0.0,2.0,27,0.00,,,0.00,Wunderground v.1.15,2013-06-14 00:00:00,
2013-06-13 17:10:00,78.0,42.2,30.04,West,272,2.0,2.0,28,0.00,,,0.00,Wunderground v.1.15,2013-06-14 00:10:00,
2013-06-13 17:15:00,77.7,40.1,30.04,WNW,300,3.0,3.0,26,0.00,,,0.00,Wunderground v.1.15,2013-06-14 00:15:00,
2013-06-13 17:20:00,77.4,40.8,30.04,West,261,3.0,3.0,27,0.00,,,0.00,Wunderground v.1.15,2013-06-14 00:20:00,
2013-06-13 17:25:00,77.5,40.9,30.04,NNW,343,3.0,3.0,27,0.00,,,0.00,Wunderground v.1.15,2013-06-14 00:25:00,
2013-06-13 17:30:00,76.7,39.2,30.04,NNW,339,3.0,9.0,26,0.00,,,0.00,Wunderground v.1.15,2013-06-14 00:30:00,
2013-06-13 17:40:00,75.8,40.4,30.03,SE,142,4.0,6.0,28,0.00,,,0.00,Wunderground v.1.15,2013-06-14 00:40:00,
2013-06-13 17:45:00,76.0,39.6,30.03,NW,317,3.0,6.0,27,0.00,,,0.00,Wunderground v.1.15,2013-06-14 00:45:00,
2013-06-13 17:50:00,76.1,38.7,30.03,NW,325,3.0,4.0,26,0.00,,,0.00,Wunderground v.1.15,2013-06-14 00:50:00,
2013-06-13 17:55:00,76.4,38.0,30.03,NW,326,3.0,4.0,25,0.00,,,0.00,Wunderground v.1.15,2013-06-14 00:55:00,
2013-06-13 18:00:00,76.7,38.2,30.03,NW,313,2.0,2.0,25,0.00,,,0.00,Wunderground v.1.15,2013-06-14 01:00:00,
2013-06-13 18:05:00,77.1,37.5,30.03,NNW,333,1.0,2.0,24,0.00,,,0.00,Wunderground v.1.15,2013-06-14 01:05:00,
2013-06-13 18:10:00,77.3,39.7,30.03,NNW,346,1.0,1.0,26,0.00,,,0.00,Wunderground v.1.15,2013-06-14 01:10:00,
2013-06-13 18:20:00,77.4,39.8,30.02,NNW,327,1.0,3.0,26,0.00,,,0.00,Wunderground v.1.15,2013-06-14 01:20:00,
2013-06-13 18:25:00,76.7,40.2,30.02,NNW,344,2.0,3.0,27,0.00,,,0.00,Wunderground v.1.15,2013-06-14 01:25:00,
2013-06-13 18:30:00,76.6,42.0,30.02,North,351,2.0,2.0,29,0.00,,,0.00,Wunderground v.1.15,2013-06-14 01:30:00,
2013-06-13 18:40:00,76.9,43.1,30.02,WSW,238,0.0,1.0,30,0.00,,,0.00,Wunderground v.1.15,2013-06-14 01:40:00,
2013-06-13 18:45:00,76.8,43.9,30.02,West,272,0.0,1.0,31,0.00,,,0.00,Wunderground v.1.15,2013-06-14 01:45:00,
2013-06-13 18:50:00,76.7,45.4,30.02,WSW,247,1.0,1.0,33,0.00,,,0.00,Wunderground v.1.15,2013-06-14 01:50:00,
2013-06-13 18:55:00,76.5,43.6,30.02,WSW,244,1.0,1.0,31,0.00,,,0.00,Wunderground v.1.15,2013-06-14 01:55:00,
2013-06-13 19:05:00,75.4,43.5,30.01,West,259,1.0,1.0,32,0.00,,,0.00,Wunderground v.1.15,2013-06-14 02:05:00,
2013-06-13 19:10:00,74.9,43.8,30.01,West,259,0.0,0.0,33,0.00,,,0.00,Wunderground v.1.15,2013-06-14 02:10:00,
2013-06-13 19:15:00,74.3,43.3,30.01,West,259,0.0,0.0,33,0.00,,,0.00,Wunderground v.1.15,2013-06-14 02:15:00,
2013-06-13 19:25:00,73.2,45.4,30.01,NW,312,0.0,1.0,37,0.00,,,0.00,Wunderground v.1.15,2013-06-14 02:25:00,
2013-06-13 19:30:00,72.8,47.1,30.01,NW,312,0.0,0.0,40,0.00,,,0.00,Wunderground v.1.15,2013-06-14 02:30:00,
2013-06-13 19:40:00,71.7,47.4,30.01,NW,313,0.0,0.0,42,0.00,,,0.00,Wunderground v.1.15,2013-06-14 02:40:00,
2013-06-13 19:45:00,71.2,47.6,30.01,NW,313,0.0,0.0,43,0.00,,,0.00,Wunderground v.1.15,2013-06-14 02:45:00,
2013-06-13 19:50:00,70.8,47.8,30.01,NW,313,0.0,0.0,44,0.00,,,0.00,Wunderground v.1.15,2013-06-14 02:50:00,
2013-06-13 19:55:00,70.5,48.1,30.01,NW,313,0.0,0.0,45,0.00,,,0.00,Wunderground v.1.15,2013-06-14 02:55:00,
2013-06-13 20:00:00,70.1,47.2,30.01,NW,313,0.0,0.0,44,0.00,,,0.00,Wunderground v.1.15,2013-06-14 03:00:00,
2013-06-13 20:10:00,69.4,47.1,30.01,NW,313,0.0,0.0,45,0.00,,,0.00,Wunderground v.1.15,2013-06-14 03:10:00,
2013-06-13 20:15:00,69.0,46.8,30.01,NW,313,0.0,0.0,45,0.00,,,0.00,Wunderground v.1.15,2013-06-14 03:15:00,
2013-06-13 20:20:00,68.7,47.1,30.01,NW,313,0.0,0.0,46,0.00,,,0.00,Wunderground v.1.15,2013-06-14 03:20:00,
2013-06-13 20:30:00,67.6,48.8,30.01,NW,313,0.0,0.0,51,0.00,,,0.00,Wunderground v.1.15,2013-06-14 03:30:00,
2013-06-13 20:35:00,67.0,47.7,30.01,NW,313,0.0,0.0,50,0.00,,,0.00,Wunderground v.1.15,2013-06-14 03:35:00,
2013-06-13 20:40:00,66.4,48.2,30.01,NW,313,0.0,0.0,52,0.00,,,0.00,Wunderground v.1.15,2013-06-14 03:40:00,
2013-06-13 20:45:00,66.1,48.5,30.01,NW,313,0.0,0.0,53,0.00,,,0.00,Wunderground v.1.15,2013-06-14 03:45:00,
2013-06-13 20:50:00,65.7,48.6,30.02,NW,313,0.0,0.0,54,0.00,,,0.00,Wunderground v.1.15,2013-06-14 03:50:00,
2013-06-13 21:00:00,64.8,48.2,30.01,NW,313,0.0,0.0,55,0.00,,,0.00,Wunderground v.1.15,2013-06-14 04:00:00,
2013-06-13 21:05:00,64.4,48.8,30.01,NW,313,0.0,0.0,57,0.00,,,0.00,Wunderground v.1.15,2013-06-14 04:05:00,
2013-06-13 21:10:00,64.3,48.7,30.01,NW,313,0.0,0.0,57,0.00,,,0.00,Wunderground v.1.15,2013-06-14 04:10:00,
2013-06-13 21:15:00,64.1,48.5,30.02,NW,313,0.0,0.0,57,0.00,,,0.00,Wunderground v.1.15,2013-06-14 04:15:00,
2013-06-13 21:20:00,63.8,48.7,30.01,NW,313,0.0,0.0,58,0.00,,,0.00,Wunderground v.1.15,2013-06-14 04:20:00,
2013-06-13 21:25:00,63.4,48.8,30.02,NW,313,0.0,0.0,59,0.00,,,0.00,Wunderground v.1.15,2013-06-14 04:25:00,
2013-06-13 21:30:00,63.1,48.5,30.02,NW,313,0.0,0.0,59,0.00,,,0.00,Wunderground v.1.15,2013-06-14 04:30:00,
2013-06-13 21:35:00,63.0,47.5,30.01,NW,313,0.0,0.0,57,0.00,,,0.00,Wunderground v.1.15,2013-06-14 04:35:00,
2013-06-13 21:40:00,63.2,46.8,30.02,NNW,331,0.0,0.0,55,0.00,,,0.00,Wunderground v.1.15,2013-06-14 04:40:00,
2013-06-13 21:50:00,64.0,47.0,30.02,WNW,286,0.0,0.0,54,0.00,,,0.00,Wunderground v.1.15,2013-06-14 04:50:00,
2013-06-13 21:55:00,63.9,46.9,30.02,WNW,287,0.0,0.0,54,0.00,,,0.00,Wunderground v.1.15,2013-06-14 04:55:00,
2013-06-13 22:00:00,64.0,47.0,30.02,WNW,299,0.0,0.0,54,0.00,,,0.00,Wunderground v.1.15,2013-06-14 05:00:00,
2013-06-13 22:05:00,64.1,47.1,30.02,NW,307,1.0,1.0,54,0.00,,,0.00,Wunderground v.1.15,2013-06-14 05:05:00,
2013-06-13 22:15:00,64.1,47.1,30.02,WNW,298,0.0,1.0,54,0.00,,,0.00,Wunderground v.1.15,2013-06-14 05:15:00,
2013-06-13 22:20:00,64.0,47.5,30.02,NW,315,0.0,0.0,55,0.00,,,0.00,Wunderground v.1.15,2013-06-14 05:20:00,
2013-06-13 22:25:00,63.9,47.4,30.02,NW,308,0.0,0.0,55,0.00,,,0.00,Wunderground v.1.15,2013-06-14 05:25:00,
2013-06-13 22:30:00,63.7,47.2,30.02,WNW,302,0.0,0.0,55,0.00,,,0.00,Wunderground v.1.15,2013-06-14 05:30:00,
2013-06-13 22:40:00,63.2,46.8,30.01,NW,322,0.0,0.0,55,0.00,,,0.00,Wunderground v.1.15,2013-06-14 05:40:00,
2013-06-13 22:45:00,63.1,47.1,30.02,WNW,298,0.0,1.0,56,0.00,,,0.00,Wunderground v.1.15,2013-06-14 05:45:00,
2013-06-13 22:50:00,63.1,47.1,30.01,NW,304,0.0,1.0,56,0.00,,,0.00,Wunderground v.1.15,2013-06-14 05:50:00,
2013-06-13 23:00:00,62.8,46.9,30.01,WNW,282,0.0,0.0,56,0.00,,,0.00,Wunderground v.1.15,2013-06-14 06:00:00,
2013-06-13 23:05:00,62.6,46.7,30.01,NW,324,0.0,0.0,56,0.00,,,0.00,Wunderground v.1.15,2013-06-14 06:05:00,
2013-06-13 23:10:00,62.3,46.4,30.01,NW,313,0.0,0.0,56,0.00,,,0.00,Wunderground v.1.15,2013-06-14 06:10:00,
2013-06-13 23:20:00,61.8,46.4,30.01,NW,313,0.0,0.0,57,0.00,,,0.00,Wunderground v.1.15,2013-06-14 06:20:00,
2013-06-13 23:25:00,61.5,46.6,30.01,SSE,163,0.0,0.0,58,0.00,,,0.00,Wunderground v.1.15,2013-06-14 06:25:00,
2013-06-13 23:35:00,61.2,46.3,30.01,WSW,248,0.0,0.0,58,0.00,,,0.00,Wunderground v.1.15,2013-06-14 06:35:00,
2013-06-13 23:40:00,61.0,46.6,30.01,WSW,248,0.0,0.0,59,0.00,,,0.00,Wunderground v.1.15,2013-06-14 06:40:00,
2013-06-13 23:45:00,61.0,46.6,30.01,West,273,0.0,0.0,59,0.00,,,0.00,Wunderground v.1.15,2013-06-14 06:45:00,
2013-06-13 23:55:00,61.7,46.8,30.00,West,264,1.0,2.0,58,0.00,,,0.00,Wunderground v.1.15,2013-06-14 06:55:00,